Home   Weather   Brampton   Past weeks

Flag for Canada Past Weather in Brampton, Ontario, Canada — Yesterday and Last 2 Weeks

Now
64 °F

Passing clouds.


Feels Like: 64 °F
Forecast: 62 / 73 °F
Wind: 10 mph from North

Location: Toronto Pearson International Airport

Current Time: Jul 28, 2017 at 7:12:02 am

Latest Report: Jul 28, 2017 at 6:00 am


Visibility: 15 mi

Pressure: 29.96 "Hg

Humidity: 78%

Dew Point: 57 °F

Location of BramptonLocation

Past Weather in Brampton — Graph

°F

Brampton Temperature Yesterday

Maximum temperature yesterday: 81 °F (at 6:00 pm)
Minimum temperature yesterday: 66 °F (at 1:00 am)
Average temperature yesterday: 71 °F

High & Low Weather Summary for the Past Weeks

 TemperatureHumidityPressure
High90 °F (Jul 19, 5:00 pm)94% (Jul 13, 5:00 am)30.23 "Hg (Jul 13, 5:00 am)
Low59 °F (Jul 26, 4:00 am)35% (Jul 21, 5:00 pm)29.71 "Hg (Jul 24, 5:00 am)
Average70 °F73%29.96 "Hg
* Reported Jul 13 5:00 am — Jul 28 5:00 am, Brampton. Weather by CustomWeather, © 2017

Note: Actual official high and low records may vary slightly from our data, if they occured in-between our weather recording intervals... More about our weather records

Advertising

Brampton Weather History for the Previous 24 Hours

Scroll right to see more
 ConditionsComfort  
Time TempWeatherWind HumidityBarometerVisibility
5:00 am
Fri, Jul 28
64 °FPartly cloudy.6 mph78%29.95 "Hg15 mi
4:00 am64 °FPassing clouds.8 mph78%29.94 "Hg15 mi
3:00 am64 °FPassing clouds.8 mph83%29.93 "Hg15 mi
2:00 am64 °FPassing clouds.13 mph88%29.93 "Hg15 mi
1:00 am64 °FPassing clouds.13 mph83%29.93 "Hg15 mi
12:00 am66 °FPassing clouds.14 mph78%29.93 "Hg15 mi
11:00 pm
Thu, Jul 27
68 °FPassing clouds.15 mph73%29.92 "Hg15 mi
10:00 pm70 °FPassing clouds.12 mph69%29.92 "Hg15 mi
9:00 pm72 °FPassing clouds.16 mph65%29.90 "Hg15 mi
8:00 pm75 °FScattered clouds.12 mph57%29.89 "Hg15 mi
7:00 pm79 °FScattered clouds.14 mph54%29.87 "Hg15 mi
6:00 pm81 °FPartly sunny.3 mph51%29.86 "Hg15 mi
5:00 pm79 °FPassing clouds.2 mph70%29.87 "Hg15 mi
4:00 pm77 °FPartly sunny.9 mph74%29.88 "Hg15 mi
3:00 pm75 °FScattered showers. Partly sunny.6 mph78%29.89 "Hg15 mi
2:00 pm75 °FBroken clouds.6 mph78%29.91 "Hg15 mi
1:00 pm75 °FMostly cloudy.2 mph74%29.92 "Hg15 mi
12:14 pm75 °FPartly sunny.3 mph78%29.92 "Hg15 mi
11:39 am72 °FPartly sunny.2 mph83%29.93 "Hg15 mi
11:00 am70 °FBroken clouds.3 mph94%29.93 "Hg12 mi
10:25 am68 °FLow clouds.No wind94%29.95 "Hg10 mi
10:00 am68 °FLight rain. Mostly cloudy.3 mph88%29.95 "Hg9 mi
9:00 am68 °FLight rain. Mostly cloudy.6 mph88%29.96 "Hg6 mi
8:36 am68 °FRain. Overcast.9 mph88%29.95 "Hg9 mi
8:14 am68 °FLight rain. Mostly cloudy.10 mph88%29.95 "Hg12 mi
8:00 am68 °FOvercast.9 mph88%29.95 "Hg15 mi
7:00 am68 °FPartly sunny.6 mph88%29.95 "Hg15 mi
Weather by CustomWeather, © 2017

See weather overviewHow to use our weather pages